RH
31 34 35 33 35 37 41 44 44 46 47 46 31 33 38 35 33 32 43 31 27 25 25 27 22 21 21 36 30 27 23 16 16 18 18 22 22 23 25 25 38 43 37 40 22
34 36 36 36 36 36 39 41 42 45 45 46 44 37 37 36 34 30 30 30 28 27 26 28 42 30 32 32 31 27 21 18 20 20 21 22 23 22 23 21 28 38 46 29 23
36 38 39 38 38 38 39 40 42 43 44 44 43 41 38 35 34 41 34 29 28 28 29 28 26 32 31 30 29 27 24 22 23 23 24 24 24 24 24 22 22 23 24 39 29
38 39 41 41 40 40 40 41 42 44 44 43 42 42 38 37 47 37 33 32 29 28 29 31 32 38 34 31 30 30 27 28 27 28 29 29 28 27 24 23 24 24 27 31 34
39 40 42 43 44 43 43 41 43 43 46 46 44 41 40 38 47 30 33 33 33 32 32 38 43 40 36 32 32 34 30 30 31 31 31 32 31 31 28 28 26 21 20 21 38
41 42 44 45 46 47 46 43 41 45 44 48 47 44 40 40 37 34 32 34 34 34 37 42 48 46 41 38 35 32 37 33 32 32 32 32 28 29 26 27 30 23 23 34 40
43 45 46 48 48 50 50 48 43 46 47 46 48 46 41 40 37 34 33 34 34 34 40 34 32 40 47 40 38 37 36 32 28 28 31 33 28 26 28 36 32 33 42 36 33
44 46 48 50 50 52 53 52 49 45 47 48 45 47 45 39 36 36 35 34 36 36 36 36 35 33 41 44 40 37 32 28 26 30 31 31 23 22 30 32 30 29 31 38 43
46 48 50 52 52 53 55 56 54 47 45 50 47 47 51 42 38 39 41 41 40 39 39 38 36 39 48 44 34 30 26 22 21 29 30 32 26 26 29 33 31 33 31 32 35
48 50 52 54 53 55 57 59 58 50 46 40 50 52 61 53 40 43 46 44 42 42 41 53 53 54 45 37 28 26 24 22 21 26 33 31 30 29 28 28 29 32 30 34 34
49 52 53 56 55 57 58 62 75 67 48 44 48 48 44 45 40 41 40 39 37 34 45 56 50 42 33 33 35 30 28 24 22 23 28 30 28 27 26 27 28 29 29 31 38
46 52 56 58 58 59 62 67 68 66 49 42 45 44 45 41 41 40 37 29 27 38 50 52 48 36 30 20 31 32 29 26 25 26 32 30 26 25 25 24 25 27 30 38 42
43 50 56 60 64 62 68 71 72 72 61 53 57 52 39 28 30 27 23 23 29 34 38 44 32 21 19 34 35 30 28 30 31 29 28 25 22 20 24 25 26 29 36 47 33
35 44 53 61 66 63 71 73 77 84 78 64 60 43 26 23 24 22 20 22 18 21 20 30 35 27 29 33 33 32 28 32 29 28 27 25 23 22 21 22 28 45 55 37 18
26 36 43 56 61 74 71 81 86 94 83 67 61 55 35 28 28 30 22 24 37 35 30 35 37 39 38 34 29 31 30 32 30 30 29 27 25 21 20 20 22 48 51 19 18
22 26 35 41 52 69 75 90 99 98 97 77 58 44 40 36 32 30 27 32 42 45 39 40 37 37 35 32 30 31 32 31 30 28 26 24 21 18 18 19 24 53 58 20 22
52 36 36 40 49 72 88 97 100 99 90 67 61 56 50 45 44 41 41 46 46 43 41 42 39 38 39 38 35 33 34 31 30 27 26 22 22 21 20 26 29 46 61 28 30
89 90 66 51 48 60 94 99 100 99 94 71 56 56 51 46 49 50 48 49 48 45 44 41 39 36 37 37 36 33 32 32 38 34 26 25 24 22 26 28 29 30 46 34 53
100 100 100 96 79 62 100 99 98 99 97 84 80 64 58 57 57 59 58 55 52 48 46 46 44 36 38 35 35 35 34 34 33 32 32 29 26 24 32 49 54 58 47 62 65
100 100 100 99 99 97 100 94 100 98 96 99 98 90 75 69 66 61 60 57 52 50 46 50 50 46 43 38 38 36 36 35 36 42 40 27 25 25 39 44 60 73 75 72 70
100 100 97 100 100 100 97 92 100 100 99 99 98 98 95 81 76 78 66 62 62 54 47 49 54 52 48 43 42 38 37 36 35 35 38 40 33 41 45 50 54 60 65 59 53
99 100 100 100 100 99 99 97 98 99 99 97 100 97 98 99 99 96 92 82 74 69 61 75 82 70 59 51 46 40 37 36 38 37 37 38 48 42 48 52 56 56 52 53 48
100 100 100 100 99 97 100 99 98 100 99 99 99 98 98 100 100 98 98 97 95 99 98 92 83 63 58 57 52 45 42 41 40 41 43 52 50 48 46 51 53 53 50 45 51
100 100 100 100 97 99 100 98 99 98 99 100 99 100 100 99 98 99 98 98 98 100 98 96 96 79 67 61 90 72 54 51 47 48 51 52 52 52 53 55 53 45 42 51 57
99 98 99 96 98 100 100 97 99 100 100 100 99 97 98 100 100 99 99 98 96 99 99 98 91 97 84 75 78 79 76 74 60 52 52 61 60 59 60 52 42 43 52 56 54
98 98 99 97 100 100 99 96 98 100 99 97 97 91 98 100 97 100 100 98 95 99 100 99 98 100 96 94 85 86 77 81 82 79 69 67 69 69 52 43 42 48 54 54 62
99 98 99 98 99 100 93 96 96 99 97 99 99 100 100 95 100 99 99 99 99 99 100 100 100 99 91 78 88 93 78 70 66 62 64 71 58 44 41 42 48 60 64 68 69
Wind_Speed
7 7 9 13 18 20 20 19 17 15 14 12 10 8 8 6 6 1 2 3 5 5 6 6 3 3 3 7 9 7 8 10 5 6 3 6 6 7 9 9 7 8 5 13 12
8 8 11 12 17 21 21 21 20 18 15 14 12 11 10 8 7 5 4 4 4 4 3 2 4 5 7 5 7 7 9 8 6 6 6 7 6 8 9 8 9 11 13 16 16
8 9 11 13 15 19 21 22 22 22 18 16 14 11 11 10 8 7 7 9 7 6 4 3 3 4 7 10 9 6 12 9 7 9 9 9 11 11 11 11 11 11 12 19 19
11 11 12 13 14 17 20 23 23 24 24 19 16 13 11 10 1 11 10 8 7 8 7 5 5 8 8 11 10 11 12 13 11 11 9 10 12 14 14 15 15 15 16 15 21
15 14 14 14 15 16 18 22 24 24 24 24 20 15 12 10 13 16 16 14 14 10 10 8 6 9 11 12 13 14 13 14 13 13 13 14 16 17 15 15 16 16 18 18 18
18 17 16 15 16 16 18 21 24 24 25 26 25 21 15 14 14 16 18 17 18 15 10 6 6 10 10 13 14 10 13 16 17 17 16 17 14 16 11 18 12 14 14 14 16
21 21 19 18 18 17 18 21 24 27 26 25 28 24 18 14 16 16 16 17 15 12 8 10 10 6 8 8 13 15 16 16 17 15 14 11 16 19 13 11 9 10 9 13 16
26 24 23 21 20 20 20 21 24 27 29 27 27 26 20 15 13 8 6 7 6 6 8 9 10 11 10 10 13 13 13 14 7 8 9 9 13 6 11 10 11 11 11 10 9
29 28 27 25 23 23 23 23 26 28 30 30 26 20 17 9 10 10 8 9 10 10 13 15 13 9 9 9 11 13 12 8 10 6 7 11 11 9 13 16 18 16 13 13 12
31 30 30 27 27 25 26 25 27 30 32 29 20 22 16 25 26 24 24 19 17 19 16 12 8 8 8 7 14 9 12 13 13 7 7 13 20 22 18 17 18 17 15 18 13
33 32 33 30 30 28 29 27 27 29 35 31 30 27 27 27 28 22 18 17 15 15 12 9 8 9 8 11 13 14 14 15 14 15 17 18 20 21 21 20 18 18 15 14 9
35 34 34 33 31 30 29 26 28 32 43 36 29 25 23 21 19 14 11 8 6 5 9 9 8 8 14 13 9 9 14 17 16 12 16 22 25 29 27 24 22 20 17 15 9
36 35 35 34 32 32 29 26 27 31 37 35 26 19 11 5 2 3 4 3 3 3 2 7 7 12 13 9 12 13 15 18 18 20 23 25 22 14 7 11 16 18 18 12 15
36 37 35 34 33 33 32 26 26 27 25 15 10 5 2 3 3 5 8 7 5 3 3 6 10 12 15 13 13 17 14 15 19 21 22 20 30 21 18 15 11 8 8 12 18
37 38 36 35 35 30 35 27 25 23 7 8 13 10 6 5 5 1 3 5 1 4 9 7 10 13 14 15 15 19 17 18 22 24 27 23 23 23 14 17 19 13 12 12 13
36 38 39 39 36 34 31 28 23 12 9 6 11 4 6 6 5 4 4 3 7 12 14 17 16 20 15 16 16 17 22 25 25 23 18 20 14 10 10 16 17 12 11 18 21
38 41 42 40 36 34 29 25 19 12 8 8 12 16 9 7 8 6 6 8 8 13 15 17 20 21 17 15 15 17 16 15 10 12 15 18 11 19 17 12 14 12 12 17 21
44 45 46 42 39 36 28 28 25 16 25 15 10 12 9 8 11 12 13 17 15 16 19 22 19 11 16 14 14 15 16 15 17 13 19 29 18 14 8 18 22 18 16 21 14
43 50 52 49 44 39 34 32 31 25 26 25 21 15 21 19 25 22 24 26 23 19 18 15 17 7 19 16 14 13 17 19 26 30 27 23 27 22 16 10 12 12 17 12 11
46 42 50 44 44 41 42 56 32 30 23 19 26 16 18 22 24 12 15 12 13 17 19 16 27 16 18 17 21 25 19 17 15 8 14 16 22 20 6 11 11 10 10 11 13
39 45 54 44 39 48 60 57 45 47 25 26 33 28 27 24 23 26 22 17 17 16 16 17 20 28 18 20 21 20 24 24 26 30 17 19 19 5 6 5 7 8 10 16 22
49 48 53 44 47 54 66 55 46 37 33 39 43 41 40 36 34 30 34 28 17 18 17 15 14 27 29 25 27 27 29 29 29 23 32 27 45 27 19 16 15 15 19 30 32
50 50 51 39 44 57 56 51 53 52 47 37 42 44 43 37 29 37 41 37 37 34 18 12 12 15 11 15 24 30 26 30 33 33 44 24 37 17 10 10 21 30 33 31 30
54 49 49 49 52 49 52 52 50 51 53 53 47 44 41 42 44 37 33 33 34 29 30 23 24 24 26 19 16 16 22 28 32 37 37 44 44 36 37 34 32 31 32 32 30
55 54 51 43 64 58 53 53 56 57 47 51 55 57 50 43 41 42 42 41 37 36 37 36 38 31 40 34 31 32 33 30 32 36 35 38 35 31 31 31 31 33 31 28 28
57 61 63 60 48 46 54 60 60 51 51 54 56 50 48 47 45 38 32 33 33 30 36 40 38 22 38 32 32 35 36 35 36 35 39 39 47 32 31 30 30 27 27 29 31
64 62 59 58 60 52 64 59 55 53 53 49 48 43 45 40 31 33 39 37 33 33 33 35 35 22 34 23 25 32 36 39 41 40 39 41 37 29 29 25 27 27 28 30 28
Wind_Direction
318 332 343 351 353 352 348 347 348 342 335 336 331 318 308 315 322 0 157 278 332 355 359 14 354 291 245 227 245 266 247 257 250 249 246 252 246 281 252 241 258 245 250 256 270
303 316 326 340 353 350 350 346 346 342 333 325 322 311 303 303 313 268 234 305 293 298 325 14 265 299 241 241 244 226 252 289 252 244 243 272 268 250 278 260 268 270 275 273 272
283 296 312 327 344 346 349 348 345 345 338 324 319 310 298 295 320 249 278 279 266 268 287 286 262 254 246 242 243 251 246 281 269 257 254 250 255 268 267 259 262 264 270 277 278
275 284 295 312 327 337 346 347 346 346 343 331 321 315 296 285 275 253 284 276 262 264 277 276 271 253 256 251 243 254 260 257 250 262 262 265 271 267 258 260 259 259 251 244 274
268 275 284 299 312 326 338 343 344 343 344 339 331 317 306 291 277 273 274 265 272 266 268 261 259 254 252 254 252 263 260 260 264 264 268 274 271 274 267 259 255 264 269 264 251
262 267 276 286 299 314 326 333 338 342 339 337 337 332 312 300 288 275 272 267 273 272 252 254 250 250 253 254 256 273 258 265 265 265 268 268 274 261 279 251 292 288 282 268 251
260 267 272 278 290 302 313 322 327 334 336 332 330 334 316 299 296 280 271 272 272 261 227 236 240 243 269 278 263 267 273 281 271 265 264 258 272 253 241 276 284 303 291 259 248
260 264 268 274 283 294 302 312 317 321 334 328 327 328 319 303 295 288 277 268 266 251 255 270 266 262 263 263 277 276 278 283 140 239 257 266 286 272 243 260 281 273 288 291 266
257 262 268 273 280 288 295 304 309 315 322 326 322 324 317 312 300 289 293 287 276 272 281 290 287 270 264 282 284 245 285 272 303 235 270 255 272 254 277 280 283 273 272 271 262
254 260 265 269 277 284 291 299 305 310 310 325 327 333 314 295 290 283 287 287 276 272 276 285 279 269 280 261 271 322 293 285 286 283 297 277 270 281 280 271 267 265 255 260 247
253 257 263 267 273 279 287 297 309 316 315 319 316 297 293 283 284 282 282 283 280 275 264 261 263 257 274 265 269 280 280 282 284 283 280 279 280 275 275 266 263 266 276 237 232
252 255 259 264 270 276 283 294 302 306 310 316 321 300 293 283 279 280 281 272 277 252 236 233 276 280 269 275 279 281 285 287 291 296 293 293 288 285 276 263 259 247 232 224 223
251 253 257 262 267 274 279 288 298 303 310 319 310 288 287 294 199 159 120 112 95 139 192 236 306 286 299 297 300 294 290 294 292 297 296 295 292 283 246 240 237 217 207 218 234
250 253 255 260 264 271 275 283 292 304 320 311 295 279 234 132 102 132 127 101 93 126 293 296 261 306 306 283 281 280 297 282 292 297 291 295 293 276 274 259 242 224 205 238 267
248 252 255 256 260 265 271 281 288 306 297 289 267 254 232 183 163 296 138 96 106 297 293 285 284 286 278 280 278 278 282 284 288 286 291 282 270 266 248 235 233 217 233 271 266
245 249 251 253 257 259 268 273 284 291 238 268 259 232 210 220 212 251 250 258 309 296 275 274 270 274 273 277 273 278 291 291 284 275 270 283 269 283 262 229 191 210 218 242 263
243 247 249 251 251 252 259 269 270 221 204 254 249 245 236 235 248 244 249 273 285 292 283 292 276 277 270 274 273 271 295 295 281 251 263 288 268 272 274 223 203 223 221 257 267
245 248 250 248 249 247 248 247 238 240 220 226 230 234 212 226 244 259 265 271 271 259 277 286 294 277 253 251 271 269 269 265 292 296 296 297 280 308 228 231 246 250 240 268 277
245 247 245 250 245 244 230 247 236 236 233 224 224 242 245 252 262 266 272 264 261 253 248 296 278 280 259 259 254 284 249 268 275 275 279 273 273 262 251 214 223 224 248 246 263
240 237 249 249 243 236 239 243 247 242 243 216 223 234 239 241 252 258 258 271 264 242 232 257 285 271 283 257 253 250 261 257 242 273 264 268 282 299 214 239 234 226 240 251 274
240 238 247 249 241 235 231 242 242 242 229 230 236 237 243 244 244 253 259 266 260 261 235 250 255 270 265 251 272 258 248 245 257 261 274 283 269 281 304 271 232 250 263 287 294
237 237 238 233 226 232 236 234 233 239 251 245 242 249 250 251 258 245 246 249 260 231 235 238 262 264 262 267 266 253 251 253 241 251 251 260 267 271 273 267 265 275 290 293 293
231 233 237 238 227 233 237 239 236 241 240 237 237 243 254 252 239 244 256 251 248 260 255 234 233 269 278 261 249 251 253 249 250 258 260 258 262 282 237 254 289 291 293 294 294
235 232 231 235 237 234 233 241 236 234 241 244 247 248 250 254 251 249 255 261 271 262 248 223 232 235 253 274 268 259 250 250 247 250 257 252 263 263 268 282 290 293 292 293 292
229 234 233 229 236 237 235 242 240 235 236 240 243 248 253 247 244 243 258 264 270 268 266 236 247 247 259 260 257 260 260 250 248 247 245 259 261 268 275 281 285 288 293 293 293
222 228 235 237 241 240 240 243 240 239 237 240 246 254 255 250 257 258 262 261 262 263 255 250 246 256 262 260 258 259 253 252 250 248 248 257 265 271 279 281 285 287 289 293 294
226 227 235 239 241 240 244 246 242 242 246 249 252 262 255 260 269 267 260 266 267 268 261 243 239 242 262 263 259 258 254 252 253 252 250 252 264 273 272 274 280 284 287 290 293